Orbital Elements at Epoch 2459200.5 (2020-Dec-17.0) TDB
Reference: JPL 25 (heliocentric ecliptic J2000)
Element | Value | Uncertainty (1-sigma) | Units |
e | .5874861307266386 | 3.0722e-07 | |
a | .6628350454371744 | 7.2593e-09 | au |
q | .2734286492832732 | 2.0207e-07 | au |
i | 20.37004994698211 | 2.5477e-05 | deg |
node | 85.93011511337149 | 0.00012706 | deg |
peri | 248.1552573000628 | 0.00012278 | deg |
M | 158.9554212335745 | 0.00013664 | deg |
tp | 2459113.467899757861 (2020-Sep-20.96789976) | 7.3639e-05 | TDB |
period | 197.1090752616133 0.54 | 3.2381e-06 8.865e-09 | d yr |
n | 1.826399923606711 | 3.0004e-08 | deg/d |
Q | 1.052241441591076 | 1.1524e-08 | au |
|
| | Orbit Determination Parameters
Additional Information
|